EHI
0 0 0 0 0 0 0 0 0 0 0 2 7 10 13 17 19 20 20 20 25 32 39 43 45 45 42 38 37 37 37 36 35 33 31 31 32 30 27 24 23 22 18 16
0 0 0 0 0 0 0 0 0 0 1 4 7 9 12 15 17 18 20 22 25 31 39 43 44 44 42 38 35 34 33 33 32 31 31 31 30 29 27 25 23 22 20 17
0 0 0 0 0 0 0 0 0 0 2 4 6 8 11 13 13 15 21 26 28 33 40 44 44 42 40 36 31 29 28 28 28 28 29 28 27 26 26 25 23 22 20 20
0 0 0 0 0 0 0 0 1 2 3 3 4 6 10 12 13 15 21 29 33 37 42 45 43 39 36 33 27 23 24 25 25 26 26 24 23 24 23 22 21 21 20 20
0 0 0 1 1 0 0 2 4 5 5 4 3 5 10 13 14 17 23 30 35 39 42 44 41 35 32 29 23 20 22 24 24 24 23 21 20 20 19 19 19 20 20 20
0 0 1 2 2 1 1 3 6 8 9 8 8 10 15 17 18 20 26 31 34 35 37 39 37 32 28 25 21 19 21 23 23 22 21 19 19 18 17 16 15 17 19 19
0 0 1 3 4 4 4 5 7 9 11 13 15 19 22 23 23 25 28 31 31 32 34 35 35 31 26 23 21 19 19 19 20 19 17 16 16 16 16 15 14 15 16 16
0 0 1 3 5 7 9 8 8 9 10 12 17 21 24 25 25 25 28 30 30 30 32 33 32 30 27 25 24 20 17 16 17 16 14 13 13 14 15 15 14 13 13 12
1 1 1 2 4 8 10 9 7 7 7 9 13 17 20 23 22 22 25 28 28 28 29 30 28 26 26 27 26 22 18 18 17 15 13 12 12 13 13 13 12 11 10 9
2 2 1 1 2 5 7 7 6 5 5 7 10 14 19 21 21 20 22 25 26 26 27 26 24 23 24 26 26 23 21 20 18 15 12 11 11 11 11 10 9 8 7 7
4 3 1 1 2 3 4 5 4 3 4 6 10 15 19 20 21 21 21 22 23 24 24 22 23 24 24 24 24 23 21 20 18 14 10 8 8 8 8 7 6 7 7 6
4 3 2 3 3 3 3 3 3 3 4 6 10 16 18 19 20 20 18 18 17 17 17 17 18 21 23 22 21 20 18 17 16 14 10 7 6 5 4 3 3 4 5 5
2 3 4 4 4 4 4 4 4 4 4 6 10 14 16 15 15 14 12 12 10 9 10 11 13 16 19 19 18 16 15 15 14 14 12 9 6 4 3 2 1 1 1 2
1 2 3 4 4 4 4 5 5 5 5 5 8 11 12 11 10 10 8 8 7 6 8 9 10 12 14 16 16 14 12 13 13 13 12 10 7 5 3 3 2 1 0 0
1 2 3 3 3 3 4 4 4 4 5 5 7 8 9 9 9 9 9 8 7 7 8 10 11 12 13 14 14 11 9 10 11 12 12 10 7 6 4 3 3 2 1 0
0 1 2 1 1 1 1 2 3 4 5 6 6 7 8 9 10 10 9 9 8 7 8 10 13 13 12 12 11 8 6 6 8 9 9 8 7 6 5 4 3 2 1 0
0 0 0 0 0 0 0 1 2 4 5 6 6 7 9 10 10 9 9 8 7 7 7 9 12 13 11 10 9 6 4 4 4 6 6 7 6 6 6 4 4 3 1 0
0 0 0 0 0 0 0 1 2 3 5 6 7 9 11 11 10 9 8 7 7 6 7 8 9 10 10 9 7 4 3 3 3 4 5 6 6 6 6 4 4 3 1 0
0 0 1 1 0 0 1 1 2 3 5 6 7 10 11 10 8 7 6 6 6 6 6 6 7 9 9 8 5 4 3 3 3 3 4 4 5 5 6 4 3 2 1 0
0 0 1 1 0 0 1 2 3 3 4 5 7 9 9 8 7 6 6 6 5 4 5 5 6 7 7 5 3 3 3 3 3 3 4 4 3 4 5 5 3 1 0 0
0 0 1 1 0 0 1 1 2 3 4 5 6 6 5 5 6 6 6 5 4 3 3 3 4 4 3 2 2 3 3 3 3 3 3 3 2 3 5 4 2 1 0 0
0 0 0 0 0 0 0 0 1 2 4 5 4 3 3 4 5 6 5 4 2 2 1 1 1 1 1 1 2 3 3 3 3 3 2 2 2 3 3 2 1 0 0 0
0 0 0 0 1 1 0 0 1 2 2 2 1 1 1 2 3 4 3 1 1 0 0 0 0 0 0 1 3 3 3 3 3 2 1 1 2 2 2 1 0 0 1 1
0 0 0 0 1 1 0 0 1 1 1 0 0 0 0 1 1 1 1 0 0 0 0 0 0 0 1 2 3 3 3 3 3 1 0 1 1 1 1 0 0 0 0 0
0 0 0 0 1 1 0 0 0 0 0 0 0 0 0 0 0 0 1 0 0 0 0 0 0 0 1 2 2 2 2 2 2 1 0 0 0 0 0 0 0 0 0 0
0 0 1 1 1 1 0 0 0 0 0 0 0 0 0 0 0 0 0 0 0 0 0 0 0 0 1 1 1 1 1 1 1 0 0 0 0 0 0 0 0 0 0 0
0 1 1 1 1 1 0 0 0 0 0 0 0 0 0 0 0 0 0 0 0 0 0 0 0 0 0 0 0 0 0 0 0 0 0 0 0 0 0 0 0 0 0 0
Wind_Speed
15 14 11 10 11 12 11 11 11 9 8 4 1 2 3 4 3 3 4 4 5 5 3 2 3 3 3 4 4 5 6 5 5 5 4 4 4 4 3 3 3 2 2 2
14 14 13 14 13 12 13 12 12 9 6 1 4 3 3 4 3 3 4 4 4 5 5 3 3 3 3 3 3 4 5 5 4 4 4 4 4 4 3 3 3 2 2 2
12 12 13 15 12 11 10 10 9 7 3 2 4 4 3 3 3 3 4 4 3 4 4 3 3 3 2 2 3 4 4 5 4 4 4 3 4 3 3 2 2 2 2 2
10 10 14 9 7 8 7 5 4 3 1 1 3 4 3 3 3 3 3 3 3 3 4 4 4 4 3 3 3 3 4 4 4 4 3 3 3 3 2 2 2 2 2 2
7 10 12 9 6 6 5 3 1 1 1 1 3 4 4 4 3 4 4 4 3 3 4 4 4 3 3 3 3 3 3 3 3 3 3 3 3 2 2 2 2 2 2 2
9 10 9 4 7 8 6 3 2 2 1 1 1 1 2 4 4 3 4 4 3 3 4 4 3 2 3 2 2 2 2 2 2 3 3 2 2 2 2 2 2 2 2 2
10 9 6 6 8 7 3 1 4 4 4 2 2 3 3 3 4 4 4 4 4 3 3 4 2 3 2 1 1 1 2 2 2 2 2 3 2 2 2 2 2 2 2 2
7 8 4 8 6 4 4 3 4 4 4 4 3 4 3 3 3 3 3 4 3 3 3 3 3 2 2 1 1 1 1 2 2 2 2 3 2 2 2 2 3 3 3 3
2 2 1 3 3 3 3 4 4 4 4 4 3 2 2 2 2 3 3 3 2 3 3 3 2 2 2 2 1 1 1 2 2 2 1 2 3 4 3 3 3 4 4 4
2 1 1 3 4 4 4 4 4 4 4 4 3 1 1 1 2 3 3 2 2 2 2 2 2 2 2 2 1 2 2 2 2 2 2 2 2 3 3 3 3 3 3 3
4 2 3 3 3 4 3 3 3 4 3 2 2 1 1 1 2 2 3 2 1 1 1 1 1 1 2 2 2 2 2 2 3 3 3 2 1 1 2 0 1 1 1 1
3 3 3 4 4 5 4 2 2 3 3 3 3 2 1 1 2 2 2 2 1 1 1 1 1 1 2 2 2 2 3 3 3 3 3 3 3 1 1 0 2 2 1 1
3 5 4 3 4 5 4 3 2 2 2 2 2 1 1 1 1 2 1 1 1 2 2 2 2 1 1 2 3 3 3 3 3 3 3 3 3 3 2 1 1 1 1 1
3 4 5 4 4 5 4 3 2 2 2 2 1 1 1 1 1 1 1 1 2 2 2 2 2 1 1 2 2 3 3 4 3 3 3 3 3 4 3 4 3 2 3 4
4 4 5 4 4 5 4 3 2 2 1 2 2 1 1 0 1 1 1 1 1 1 1 2 1 1 1 2 2 3 3 3 3 3 3 3 3 3 3 3 3 2 2 3
4 5 5 5 4 4 5 4 3 3 2 1 1 1 1 0 0 0 0 1 1 1 1 1 1 1 1 2 2 2 3 4 3 3 3 3 3 3 3 2 2 2 2 3
4 5 4 5 5 4 4 4 4 3 3 2 1 1 1 0 0 0 1 1 1 1 1 1 2 2 2 2 2 3 3 3 4 3 3 3 3 3 2 2 2 2 2 2
3 3 3 4 4 4 4 4 4 4 3 2 1 0 0 0 1 1 1 1 1 0 0 1 1 1 2 1 1 2 2 2 2 2 2 2 2 2 2 3 3 2 1 2
2 2 2 2 3 4 3 3 4 4 3 3 2 1 1 1 0 1 1 1 1 1 1 1 1 1 1 1 2 3 3 2 1 1 1 2 2 3 2 2 2 1 1 1
2 2 2 2 3 3 3 3 3 3 3 3 2 2 2 1 1 1 1 1 1 2 2 1 1 0 1 1 1 3 2 2 2 1 1 2 3 3 2 2 1 1 0 1
2 2 2 2 2 2 2 2 2 3 3 3 2 2 2 2 1 1 1 1 2 2 2 1 1 1 0 1 3 2 1 1 1 1 1 1 2 2 1 0 0 1 1 0
2 2 3 3 2 2 1 1 1 2 2 2 2 2 2 2 1 1 1 1 2 2 2 1 0 2 2 2 2 2 1 1 1 1 1 1 1 2 1 1 1 1 0 0
3 2 2 3 2 2 1 1 1 1 1 1 1 2 2 2 2 1 1 1 1 2 1 1 1 2 2 2 2 2 0 0 1 1 1 1 1 2 1 1 1 0 0 0
2 2 2 2 2 2 1 0 1 1 1 0 1 1 1 2 1 1 1 1 1 1 1 2 2 0 2 2 2 2 1 0 1 1 0 0 1 1 1 0 0 0 1 1
2 2 2 2 2 1 1 1 1 1 1 0 0 1 1 1 1 1 1 0 1 1 1 2 3 2 2 1 1 1 1 1 1 1 0 0 1 0 0 0 0 0 1 1
3 3 2 2 2 2 2 2 2 1 1 1 1 1 1 1 0 0 1 1 1 1 1 1 2 3 2 1 0 1 1 1 1 1 1 0 1 0 0 0 1 1 1 1
3 2 2 2 2 2 1 0 1 1 1 1 0 0 1 0 0 0 1 1 1 1 1 0 0 0 1 1 1 1 1 1 1 1 1 1 1 0 1 2 1 1 1 1
Wind_Direction
270 278 272 260 260 257 253 258 260 255 244 237 187 139 123 110 108 125 134 128 128 130 127 124 106 96 111 127 137 143 146 154 155 156 158 163 166 169 171 173 175 170 176 197
274 273 274 269 254 248 250 254 258 260 258 153 146 114 111 119 141 142 136 136 135 137 133 133 120 113 107 116 131 133 136 142 148 151 156 164 167 166 166 171 165 167 179 180
273 271 272 262 262 252 246 246 253 258 246 194 132 118 127 143 152 139 134 131 124 128 124 112 105 101 110 122 128 139 140 140 144 144 151 163 168 157 161 160 154 148 157 158
272 274 263 268 275 270 263 256 250 230 228 293 115 113 99 112 128 130 124 121 115 111 115 109 103 97 92 98 107 130 126 127 131 132 134 134 131 136 138 150 159 162 175 174
264 261 259 262 280 287 266 260 356 122 171 239 130 124 108 83 95 110 107 100 97 105 119 117 118 119 119 117 119 122 129 135 136 134 141 148 142 140 139 149 165 177 186 189
258 264 266 301 336 325 285 228 25 12 36 20 147 216 106 74 72 91 104 105 104 119 117 107 106 118 122 132 137 141 140 142 138 140 154 158 156 162 159 168 184 184 181 188
255 257 264 323 325 312 270 359 6 16 13 16 17 37 78 75 65 74 90 104 113 116 114 115 127 127 138 138 167 166 138 136 147 157 165 165 165 171 179 205 197 187 198 196
257 257 257 353 343 3 21 11 14 12 6 31 52 70 90 95 93 95 98 115 124 122 121 122 131 146 160 169 183 172 154 153 153 176 201 177 165 185 198 213 209 209 216 216
269 269 29 15 7 355 11 16 19 8 13 22 28 53 87 115 124 132 123 124 125 129 133 136 151 179 190 184 178 174 169 170 169 190 203 185 193 200 205 211 225 222 217 223
258 230 311 342 341 357 11 15 17 13 10 9 341 20 77 110 119 124 123 130 134 142 136 148 178 204 191 177 176 181 190 194 192 193 200 197 206 213 211 218 228 227 223 232
283 309 314 339 340 335 355 17 6 0 353 348 325 6 49 100 112 119 124 134 140 148 160 187 200 205 190 163 169 197 206 207 210 205 195 188 206 258 239 265 259 234 263 271
305 322 303 317 322 315 312 329 352 334 330 337 335 343 358 89 113 119 133 142 150 182 191 199 211 212 188 173 181 205 217 215 220 212 198 199 200 206 40 152 145 139 122 159
323 319 318 316 314 311 304 310 306 288 301 313 329 337 355 94 110 131 156 175 189 210 212 202 205 226 208 190 190 206 228 228 232 225 208 209 209 207 203 211 206 176 184 191
322 314 314 322 324 325 319 315 318 315 325 332 344 350 18 92 119 163 206 218 214 220 216 201 199 214 222 203 202 219 232 232 235 237 233 224 216 220 218 209 205 214 222 213
322 316 308 314 321 326 328 314 298 302 319 329 338 335 344 303 211 210 215 229 215 233 230 212 212 227 235 222 215 231 243 241 235 241 246 249 243 235 229 223 224 211 190 193
313 310 304 307 315 322 320 322 317 314 317 324 324 325 338 33 167 192 208 217 217 228 257 249 237 233 219 226 243 242 237 228 235 247 249 250 250 249 244 236 237 220 204 196
291 295 308 315 316 319 320 327 329 331 334 339 342 339 6 55 43 152 210 216 225 213 196 254 255 247 235 233 250 257 258 236 220 239 240 236 245 254 261 257 243 223 219 202
290 301 317 323 321 315 321 332 331 333 336 332 334 337 184 177 235 266 268 248 227 173 356 288 281 275 251 240 266 276 275 265 238 243 259 260 253 244 243 247 247 238 224 187
322 329 341 349 327 317 325 336 339 350 355 352 356 339 287 253 240 279 281 272 270 317 325 318 288 258 245 202 263 253 249 251 251 255 262 269 270 264 257 249 243 231 206 177
311 315 327 334 331 326 332 344 351 3 7 5 7 4 353 350 326 307 338 357 358 350 331 344 309 276 223 151 259 262 260 262 260 260 265 263 260 260 252 233 222 247 229 206
341 342 336 325 334 337 339 340 353 18 17 19 18 6 12 12 3 17 29 14 19 359 321 304 297 307 324 318 273 265 246 256 273 301 295 288 283 283 293 276 218 220 218 220
343 349 351 351 5 17 4 350 3 34 35 17 4 359 6 356 2 30 30 6 343 344 306 305 350 26 5 292 270 268 254 261 247 262 257 268 269 267 256 258 249 230 196 150
347 354 350 350 355 346 353 10 31 36 27 353 335 345 341 333 331 332 341 347 330 330 321 20 37 50 338 293 295 289 252 220 268 282 302 295 280 276 267 262 256 222 144 171
326 336 323 317 312 302 306 32 26 349 322 302 311 315 307 299 305 345 27 78 11 315 322 86 104 72 281 293 309 317 345 163 211 222 191 260 274 276 268 275 263 162 168 185
271 271 269 270 272 253 209 198 225 218 225 217 262 270 268 287 315 340 349 83 125 213 224 164 185 203 239 284 313 330 348 32 38 20 35 320 286 274 323 21 50 80 96 103
258 260 257 250 251 232 208 196 204 209 215 214 226 259 316 9 60 193 221 170 187 256 260 200 199 210 229 250 343 15 41 67 58 355 349 335 294 284 154 156 128 77 64 54
240 244 238 234 232 231 233 192 160 163 188 190 155 348 355 3 296 287 274 229 209 237 277 342 256 272 2 1 27 39 35 35 30 21 3 354 350 64 94 91 82 82 79 81